contact:dominique.lefevre@mio.osupytheas.fr, maurice.libes@osupytheas.fr, didier.mallarino@osupytheas.fr
Project:EMSO http://www.emso-fr.org/EMSO-France
Depth: 2436.0 m
Title:EMSO Ligure Ouest : Data MII capteur MICROCAT
DateTime_Computer,Latitude,Longitude,Temperature,Conductivity,Pressure,DateTime_Instrument
DateTime_Computer,Latitude,Longitude,degC,S m-1,dbar,DateTime_Instrument
2020-09-05T00:02:27Z,42.805,6.029,13.3011,4.60010,2470.124,2020-9-05T02:03:18Z
2020-09-05T00:05:29Z,42.805,6.029,13.3006,4.60005,2470.1,2020-9-05T02:06:19Z
2020-09-05T00:08:33Z,42.805,6.029,13.3004,4.59999,2470.147,2020-9-05T02:09:24Z
2020-09-05T00:11:37Z,42.805,6.029,13.3022,4.60024,2470.147,2020-9-05T02:12:28Z
2020-09-05T00:14:39Z,42.805,6.029,13.3026,4.60019,2470.156,2020-9-05T02:15:29Z
2020-09-05T00:17:43Z,42.805,6.029,13.2990,4.60025,2470.124,2020-9-05T02:18:34Z
2020-09-05T00:20:45Z,42.805,6.029,13.3016,4.60009,2470.124,2020-9-05T02:21:36Z
2020-09-05T00:23:49Z,42.805,6.029,13.3021,4.59994,2470.087,2020-9-05T02:24:39Z
2020-09-05T00:26:52Z,42.805,6.029,13.2996,4.60016,2470.147,2020-9-05T02:27:43Z
2020-09-05T00:29:56Z,42.805,6.029,13.2991,4.60017,2470.156,2020-9-05T02:30:47Z
2020-09-05T00:33:00Z,42.805,6.029,13.2996,4.60015,2470.087,2020-9-05T02:33:51Z
2020-09-05T00:36:01Z,42.805,6.029,13.2997,4.59993,2470.11,2020-9-05T02:36:52Z
2020-09-05T00:39:05Z,42.805,6.029,13.3027,4.60009,2470.124,2020-9-05T02:39:56Z
2020-09-05T00:42:07Z,42.805,6.029,13.3024,4.60047,2470.124,2020-9-05T02:42:58Z
2020-09-05T00:45:10Z,42.805,6.029,13.3004,4.60032,2470.1,2020-9-05T02:46:01Z
2020-09-05T00:48:13Z,42.805,6.029,13.3028,4.60026,2470.087,2020-9-05T02:49:04Z
2020-09-05T00:51:15Z,42.805,6.029,13.3033,4.60006,2470.087,2020-9-05T02:52:06Z
2020-09-05T00:54:18Z,42.805,6.029,13.3054,4.60008,2470.124,2020-9-05T02:55:09Z
2020-09-05T00:57:22Z,42.805,6.029,13.2998,4.60024,2470.1,2020-9-05T02:58:12Z
2020-09-05T01:00:24Z,42.805,6.029,13.3026,4.59996,2470.087,2020-9-05T03:01:15Z
2020-09-05T01:03:29Z,42.805,6.029,13.3032,4.60003,2470.063,2020-9-05T03:04:20Z
2020-09-05T01:06:32Z,42.805,6.029,13.3004,4.60000,2470.1,2020-9-05T03:07:23Z
2020-09-05T01:09:33Z,42.805,6.029,13.3015,4.60043,2470.087,2020-9-05T03:10:24Z
2020-09-05T01:12:35Z,42.805,6.029,13.3034,4.60011,2470.077,2020-9-05T03:13:26Z
2020-09-05T01:15:37Z,42.805,6.029,13.3033,4.60014,2470.087,2020-9-05T03:16:28Z
2020-09-05T01:18:40Z,42.805,6.029,13.3031,4.60013,2470.087,2020-9-05T03:19:31Z
2020-09-05T01:21:41Z,42.805,6.029,13.3030,4.60010,2470.147,2020-9-05T03:22:32Z
2020-09-05T01:24:43Z,42.805,6.029,13.3045,4.60014,2470.04,2020-9-05T03:25:34Z
2020-09-05T01:27:45Z,42.805,6.029,13.3018,4.60025,2470.04,2020-9-05T03:28:36Z
2020-09-05T01:30:47Z,42.805,6.029,13.3029,4.60021,2470.087,2020-9-05T03:31:38Z
2020-09-05T01:33:51Z,42.805,6.029,13.3047,4.60013,2470.063,2020-9-05T03:34:42Z
2020-09-05T01:36:52Z,42.805,6.029,13.3045,4.60016,2470.077,2020-9-05T03:37:43Z
2020-09-05T01:39:53Z,42.805,6.029,13.3025,4.60043,2470.1,2020-9-05T03:40:44Z
2020-09-05T01:42:58Z,42.805,6.029,13.3024,4.60041,2470.053,2020-9-05T03:43:49Z
2020-09-05T01:45:59Z,42.805,6.029,13.3069,4.60043,2470.049,2020-9-05T03:46:50Z
2020-09-05T01:49:03Z,42.805,6.029,13.2982,4.60006,2470.087,2020-9-05T03:49:54Z
2020-09-05T01:52:05Z,42.805,6.029,13.3006,4.60011,2470.053,2020-9-05T03:52:56Z
2020-09-05T01:55:10Z,42.805,6.029,13.3034,4.60036,2470.063,2020-9-05T03:56:00Z
2020-09-05T01:58:14Z,42.805,6.029,13.3066,4.60046,2470.077,2020-9-05T03:59:05Z
2020-09-05T02:01:17Z,42.805,6.029,13.3051,4.60044,2470.1,2020-9-05T04:02:08Z
2020-09-05T02:04:22Z,42.805,6.029,13.3033,4.60033,2470.053,2020-9-05T04:05:13Z
2020-09-05T02:07:26Z,42.805,6.029,13.3030,4.60026,2470.04,2020-9-05T04:08:17Z
2020-09-05T02:10:29Z,42.805,6.029,13.3037,4.60029,2470.077,2020-9-05T04:11:20Z
2020-09-05T02:13:32Z,42.805,6.029,13.3041,4.60084,2470.04,2020-9-05T04:14:23Z
2020-09-05T02:16:36Z,42.805,6.029,13.3046,4.60029,2470.077,2020-9-05T04:17:27Z
2020-09-05T02:19:39Z,42.805,6.029,13.3053,4.60013,2470.053,2020-9-05T04:20:30Z
2020-09-05T02:22:41Z,42.805,6.029,13.3063,4.60009,2470.077,2020-9-05T04:23:32Z
2020-09-05T02:25:44Z,42.805,6.029,13.3052,4.60011,2470.077,2020-9-05T04:26:35Z
2020-09-05T02:28:46Z,42.805,6.029,13.3031,4.60013,2470.053,2020-9-05T04:29:37Z
2020-09-05T02:31:50Z,42.805,6.029,13.2998,4.60084,2470.053,2020-9-05T04:32:41Z
2020-09-05T02:34:53Z,42.805,6.029,13.2979,4.60014,2470.077,2020-9-05T04:35:44Z
2020-09-05T02:37:57Z,42.805,6.029,13.2973,4.60028,2470.053,2020-9-05T04:38:47Z
2020-09-05T02:41:00Z,42.805,6.029,13.2984,4.60035,2470.077,2020-9-05T04:41:51Z
2020-09-05T02:44:03Z,42.805,6.029,13.2979,4.60016,2470.053,2020-9-05T04:44:54Z
2020-09-05T02:47:06Z,42.805,6.029,13.2983,4.60009,2470.077,2020-9-05T04:47:57Z
2020-09-05T02:50:10Z,42.805,6.029,13.3029,4.60007,2470.017,2020-9-05T04:51:01Z
2020-09-05T02:53:13Z,42.805,6.029,13.3028,4.59995,2470.077,2020-9-05T04:54:03Z
2020-09-05T02:56:15Z,42.805,6.029,13.3034,4.60028,2470.077,2020-9-05T04:57:06Z
2020-09-05T02:59:18Z,42.805,6.029,13.2974,4.60016,2470.063,2020-9-05T05:00:09Z
2020-09-05T03:02:22Z,42.805,6.029,13.2973,4.60049,2470.03,2020-9-05T05:03:13Z
2020-09-05T03:05:26Z,42.805,6.029,13.2971,4.60050,2470.04,2020-9-05T05:06:17Z
2020-09-05T03:08:30Z,42.805,6.029,13.2978,4.60052,2470.04,2020-9-05T05:09:21Z
2020-09-05T03:11:33Z,42.805,6.029,13.2971,4.60102,2470.063,2020-9-05T05:12:24Z
2020-09-05T03:14:36Z,42.805,6.029,13.2974,4.60072,2470.063,2020-9-05T05:15:27Z
2020-09-05T03:17:40Z,42.805,6.029,13.2985,4.60052,2470.04,2020-9-05T05:18:31Z
2020-09-05T03:20:43Z,42.805,6.029,13.2984,4.60121,2470.017,2020-9-05T05:21:33Z
2020-09-05T03:23:46Z,42.805,6.029,13.2981,4.60067,2470.03,2020-9-05T05:24:37Z
2020-09-05T03:26:49Z,42.805,6.029,13.2973,4.60011,2470.017,2020-9-05T05:27:40Z
2020-09-05T03:29:52Z,42.805,6.029,13.2987,4.59981,2470.03,2020-9-05T05:30:43Z
2020-09-05T03:32:55Z,42.805,6.029,13.2975,4.59978,2470.017,2020-9-05T05:33:46Z
2020-09-05T03:35:59Z,42.805,6.029,13.2979,4.59976,2470.053,2020-9-05T05:36:50Z
2020-09-05T03:39:03Z,42.805,6.029,13.2977,4.59976,2470.053,2020-9-05T05:39:54Z
2020-09-05T03:42:06Z,42.805,6.029,13.2976,4.59978,2470.063,2020-9-05T05:42:57Z
2020-09-05T03:45:11Z,42.805,6.029,13.2974,4.59981,2470.017,2020-9-05T05:46:02Z
2020-09-05T03:48:14Z,42.805,6.029,13.2978,4.59978,2470.04,2020-9-05T05:49:05Z
2020-09-05T03:51:19Z,42.805,6.029,13.2975,4.59979,2470.03,2020-9-05T05:52:10Z
2020-09-05T03:54:22Z,42.805,6.029,13.2972,4.59980,2470.017,2020-9-05T05:55:13Z
2020-09-05T03:57:26Z,42.805,6.029,13.2973,4.59978,2470.053,2020-9-05T05:58:16Z
2020-09-05T04:00:29Z,42.805,6.029,13.2975,4.59976,2470.03,2020-9-05T06:01:20Z
2020-09-05T04:03:32Z,42.805,6.029,13.2973,4.59974,2470.03,2020-9-05T06:04:23Z
2020-09-05T04:06:37Z,42.805,6.029,13.2975,4.59975,2470.063,2020-9-05T06:07:28Z
2020-09-05T04:09:39Z,42.805,6.029,13.2979,4.59979,2470.053,2020-9-05T06:10:30Z
2020-09-05T04:12:42Z,42.805,6.029,13.2969,4.59976,2470.053,2020-9-05T06:13:33Z
2020-09-05T04:15:47Z,42.805,6.029,13.2968,4.59978,2470.04,2020-9-05T06:16:38Z
2020-09-05T04:18:48Z,42.805,6.029,13.2976,4.59973,2470.053,2020-9-05T06:19:39Z
2020-09-05T04:21:51Z,42.805,6.029,13.2966,4.59976,2470.017,2020-9-05T06:22:41Z
2020-09-05T04:24:54Z,42.805,6.029,13.2970,4.59981,2470.04,2020-9-05T06:25:45Z
2020-09-05T04:27:58Z,42.805,6.029,13.2971,4.59976,2470.053,2020-9-05T06:28:48Z
2020-09-05T04:31:01Z,42.805,6.029,13.2974,4.59971,2470.053,2020-9-05T06:31:52Z
2020-09-05T04:34:03Z,42.805,6.029,13.2972,4.59973,2470.053,2020-9-05T06:34:53Z
2020-09-05T04:37:05Z,42.805,6.029,13.2968,4.59975,2470.063,2020-9-05T06:37:56Z
2020-09-05T04:40:08Z,42.805,6.029,13.2971,4.59977,2470.04,2020-9-05T06:40:59Z
2020-09-05T04:43:10Z,42.805,6.029,13.2974,4.59976,2470.04,2020-9-05T06:44:00Z
2020-09-05T04:46:13Z,42.805,6.029,13.2969,4.59976,2470.04,2020-9-05T06:47:04Z
2020-09-05T04:49:16Z,42.805,6.029,13.2968,4.59976,2469.993,2020-9-05T06:50:07Z
2020-09-05T04:52:18Z,42.805,6.029,13.2971,4.59973,2470.04,2020-9-05T06:53:09Z
2020-09-05T04:55:22Z,42.805,6.029,13.2971,4.59976,2470.087,2020-9-05T06:56:13Z
2020-09-05T04:58:25Z,42.805,6.029,13.2973,4.59975,2470.053,2020-9-05T06:59:16Z
2020-09-05T05:01:30Z,42.805,6.029,13.2971,4.59975,2470.053,2020-9-05T07:02:20Z
2020-09-05T05:04:34Z,42.805,6.029,13.2968,4.59978,2470.04,2020-9-05T07:05:25Z
2020-09-05T05:07:38Z,42.805,6.029,13.2971,4.59974,2470.063,2020-9-05T07:08:29Z
2020-09-05T05:10:43Z,42.805,6.029,13.2968,4.59976,2470.063,2020-9-05T07:11:34Z
2020-09-05T05:13:47Z,42.805,6.029,13.2973,4.59987,2470.087,2020-9-05T07:14:38Z
2020-09-05T05:16:49Z,42.805,6.029,13.2972,4.59974,2470.04,2020-9-05T07:17:40Z
2020-09-05T05:19:54Z,42.805,6.029,13.2970,4.59974,2470.063,2020-9-05T07:20:45Z
2020-09-05T05:22:57Z,42.805,6.029,13.2970,4.59978,2470.063,2020-9-05T07:23:48Z
2020-09-05T05:25:59Z,42.805,6.029,13.2971,4.59978,2470.087,2020-9-05T07:26:50Z
2020-09-05T05:29:03Z,42.805,6.029,13.2968,4.59980,2470.063,2020-9-05T07:29:54Z
2020-09-05T05:32:06Z,42.805,6.029,13.2969,4.59983,2470.077,2020-9-05T07:32:57Z
2020-09-05T05:35:11Z,42.805,6.029,13.2971,4.59976,2470.063,2020-9-05T07:36:02Z
2020-09-05T05:38:14Z,42.805,6.029,13.2971,4.59978,2470.124,2020-9-05T07:39:05Z
2020-09-05T05:41:19Z,42.805,6.029,13.2970,4.59974,2470.1,2020-9-05T07:42:10Z
2020-09-05T05:44:20Z,42.805,6.029,13.2968,4.59976,2470.087,2020-9-05T07:45:11Z
2020-09-05T05:47:22Z,42.805,6.029,13.2969,4.59974,2470.11,2020-9-05T07:48:13Z
2020-09-05T05:50:24Z,42.805,6.029,13.2968,4.59981,2470.11,2020-9-05T07:51:15Z
2020-09-05T05:53:25Z,42.805,6.029,13.2968,4.59974,2470.087,2020-9-05T07:54:16Z
2020-09-05T05:56:28Z,42.805,6.029,13.2971,4.59974,2470.11,2020-9-05T07:57:19Z
2020-09-05T05:59:31Z,42.805,6.029,13.2968,4.59973,2470.124,2020-9-05T08:00:22Z
2020-09-05T06:02:32Z,42.805,6.029,13.2970,4.59973,2470.11,2020-9-05T08:03:23Z
2020-09-05T06:05:37Z,42.805,6.029,13.2970,4.59973,2470.11,2020-9-05T08:06:28Z
2020-09-05T06:08:40Z,42.805,6.029,13.2967,4.59973,2470.11,2020-9-05T08:09:31Z
2020-09-05T06:11:43Z,42.805,6.029,13.2973,4.59975,2470.087,2020-9-05T08:12:34Z
2020-09-05T06:14:46Z,42.805,6.029,13.2973,4.59977,2470.11,2020-9-05T08:15:37Z
2020-09-05T06:17:51Z,42.805,6.029,13.2974,4.59980,2470.11,2020-9-05T08:18:42Z
2020-09-05T06:20:55Z,42.805,6.029,13.2968,4.59973,2470.147,2020-9-05T08:21:46Z
2020-09-05T06:23:58Z,42.805,6.029,13.2972,4.59973,2470.133,2020-9-05T08:24:49Z
2020-09-05T06:27:01Z,42.805,6.029,13.2971,4.59975,2470.147,2020-9-05T08:27:52Z
2020-09-05T06:30:05Z,42.805,6.029,13.2971,4.59977,2470.1,2020-9-05T08:30:56Z
2020-09-05T06:33:07Z,42.805,6.029,13.2971,4.59980,2470.11,2020-9-05T08:33:58Z
2020-09-05T06:36:09Z,42.805,6.029,13.2968,4.59976,2470.11,2020-9-05T08:37:00Z
2020-09-05T06:39:14Z,42.805,6.029,13.2971,4.59973,2470.11,2020-9-05T08:40:05Z
2020-09-05T06:42:18Z,42.805,6.029,13.2967,4.59975,2470.11,2020-9-05T08:43:09Z
2020-09-05T06:45:22Z,42.805,6.029,13.2969,4.59973,2470.156,2020-9-05T08:46:13Z
2020-09-05T06:48:24Z,42.805,6.029,13.2970,4.59973,2470.156,2020-9-05T08:49:15Z
2020-09-05T06:51:28Z,42.805,6.029,13.2968,4.59978,2470.18,2020-9-05T08:52:19Z
2020-09-05T06:54:29Z,42.805,6.029,13.2971,4.59978,2470.156,2020-9-05T08:55:20Z
2020-09-05T06:57:33Z,42.805,6.029,13.2969,4.59975,2470.133,2020-9-05T08:58:24Z
2020-09-05T07:00:37Z,42.805,6.029,13.2970,4.59976,2470.156,2020-9-05T09:01:28Z
2020-09-05T07:03:41Z,42.805,6.029,13.2974,4.59979,2470.18,2020-9-05T09:04:32Z
2020-09-05T07:06:44Z,42.805,6.029,13.2968,4.59976,2470.18,2020-9-05T09:07:35Z
2020-09-05T07:09:45Z,42.805,6.029,13.2970,4.59975,2470.171,2020-9-05T09:10:36Z
2020-09-05T07:12:49Z,42.805,6.029,13.2968,4.59978,2470.18,2020-9-05T09:13:40Z
2020-09-05T07:15:53Z,42.805,6.029,13.2971,4.59984,2470.171,2020-9-05T09:16:44Z
2020-09-05T07:18:57Z,42.805,6.029,13.2968,4.59984,2470.171,2020-9-05T09:19:48Z
2020-09-05T07:21:58Z,42.805,6.029,13.2971,4.59981,2470.194,2020-9-05T09:22:49Z
2020-09-05T07:25:01Z,42.805,6.029,13.2970,4.59976,2470.18,2020-9-05T09:25:52Z
2020-09-05T07:28:04Z,42.805,6.029,13.2968,4.59976,2470.18,2020-9-05T09:28:55Z
2020-09-05T07:31:08Z,42.805,6.029,13.2974,4.59980,2470.171,2020-9-05T09:31:59Z
2020-09-05T07:34:11Z,42.805,6.029,13.2968,4.59976,2470.18,2020-9-05T09:35:02Z
2020-09-05T07:37:16Z,42.805,6.029,13.2973,4.59978,2470.18,2020-9-05T09:38:07Z
2020-09-05T07:40:20Z,42.805,6.029,13.2968,4.59978,2470.194,2020-9-05T09:41:11Z
2020-09-05T07:43:23Z,42.805,6.029,13.2971,4.59980,2470.18,2020-9-05T09:44:14Z
2020-09-05T07:46:26Z,42.805,6.029,13.2971,4.59976,2470.194,2020-9-05T09:47:17Z
2020-09-05T07:49:30Z,42.805,6.029,13.2972,4.59978,2470.18,2020-9-05T09:50:21Z
2020-09-05T07:52:34Z,42.805,6.029,13.2970,4.59981,2470.18,2020-9-05T09:53:24Z
2020-09-05T07:55:37Z,42.805,6.029,13.2969,4.59982,2470.194,2020-9-05T09:56:27Z
2020-09-05T07:58:41Z,42.805,6.029,13.2969,4.59983,2470.217,2020-9-05T09:59:32Z
2020-09-05T08:01:45Z,42.805,6.029,13.2970,4.59976,2470.217,2020-9-05T10:02:36Z
2020-09-05T08:04:47Z,42.805,6.029,13.2969,4.59983,2470.18,2020-9-05T10:05:38Z
2020-09-05T08:07:50Z,42.805,6.029,13.2967,4.59976,2470.156,2020-9-05T10:08:41Z
2020-09-05T08:10:53Z,42.805,6.029,13.2971,4.59976,2470.194,2020-9-05T10:11:44Z
2020-09-05T08:13:57Z,42.805,6.029,13.2970,4.59978,2470.203,2020-9-05T10:14:47Z
2020-09-05T08:17:00Z,42.805,6.029,13.2974,4.60008,2470.18,2020-9-05T10:17:51Z
2020-09-05T08:20:04Z,42.805,6.029,13.3014,4.60001,2470.18,2020-9-05T10:20:55Z
2020-09-05T08:23:07Z,42.805,6.029,13.2978,4.60003,2470.194,2020-9-05T10:23:58Z
2020-09-05T08:26:09Z,42.805,6.029,13.3005,4.60026,2470.18,2020-9-05T10:27:00Z
2020-09-05T08:29:12Z,42.805,6.029,13.2991,4.60015,2470.217,2020-9-05T10:30:03Z
2020-09-05T08:32:16Z,42.805,6.029,13.3011,4.60053,2470.194,2020-9-05T10:33:06Z
2020-09-05T08:35:19Z,42.805,6.029,13.3014,4.59999,2470.24,2020-9-05T10:36:10Z
2020-09-05T08:38:21Z,42.805,6.029,13.2999,4.60001,2470.194,2020-9-05T10:39:12Z
2020-09-05T08:41:25Z,42.805,6.029,13.3009,4.60035,2470.203,2020-9-05T10:42:15Z
2020-09-05T08:44:28Z,42.805,6.029,13.3004,4.60002,2470.18,2020-9-05T10:45:19Z
2020-09-05T08:47:32Z,42.805,6.029,13.3016,4.60001,2470.217,2020-9-05T10:48:23Z
2020-09-05T08:50:34Z,42.805,6.029,13.3014,4.60014,2470.203,2020-9-05T10:51:25Z
2020-09-05T08:53:35Z,42.805,6.029,13.3010,4.60012,2470.156,2020-9-05T10:54:26Z
2020-09-05T08:56:38Z,42.805,6.029,13.3003,4.60008,2470.156,2020-9-05T10:57:29Z
2020-09-05T08:59:43Z,42.805,6.029,13.3003,4.60052,2470.203,2020-9-05T11:00:34Z
2020-09-05T09:02:46Z,42.805,6.029,13.3014,4.60027,2470.18,2020-9-05T11:03:37Z
2020-09-05T09:05:50Z,42.805,6.029,13.3001,4.60034,2470.18,2020-9-05T11:06:41Z
2020-09-05T09:08:51Z,42.805,6.029,13.2998,4.60054,2470.194,2020-9-05T11:09:42Z
2020-09-05T09:11:54Z,42.805,6.029,13.2998,4.60069,2470.18,2020-9-05T11:12:45Z
2020-09-05T09:14:59Z,42.805,6.029,13.3005,4.60068,2470.133,2020-9-05T11:15:50Z
2020-09-05T09:18:03Z,42.805,6.029,13.3014,4.60052,2470.217,2020-9-05T11:18:54Z
2020-09-05T09:21:06Z,42.805,6.029,13.3016,4.60009,2470.156,2020-9-05T11:21:57Z
2020-09-05T09:24:10Z,42.805,6.029,13.3007,4.60017,2470.194,2020-9-05T11:25:01Z
2020-09-05T09:27:12Z,42.805,6.029,13.3005,4.60025,2470.18,2020-9-05T11:28:03Z
2020-09-05T09:30:16Z,42.805,6.029,13.2993,4.60034,2470.156,2020-9-05T11:31:07Z
2020-09-05T09:33:18Z,42.805,6.029,13.2994,4.60057,2470.203,2020-9-05T11:34:09Z
2020-09-05T09:36:21Z,42.805,6.029,13.2996,4.60039,2470.156,2020-9-05T11:37:12Z
2020-09-05T09:39:24Z,42.805,6.029,13.3004,4.60037,2470.18,2020-9-05T11:40:15Z
2020-09-05T09:42:26Z,42.805,6.029,13.2998,4.60034,2470.156,2020-9-05T11:43:17Z
2020-09-05T09:45:31Z,42.805,6.029,13.3033,4.60040,2470.18,2020-9-05T11:46:21Z
2020-09-05T09:48:35Z,42.805,6.029,13.2991,4.60047,2470.217,2020-9-05T11:49:26Z
2020-09-05T09:51:37Z,42.805,6.029,13.2993,4.60032,2470.18,2020-9-05T11:52:28Z
2020-09-05T09:54:38Z,42.805,6.029,13.3000,4.60062,2470.156,2020-9-05T11:55:29Z
2020-09-05T09:57:43Z,42.805,6.029,13.3002,4.60055,2470.156,2020-9-05T11:58:33Z
2020-09-05T10:00:46Z,42.805,6.029,13.3004,4.60038,2470.217,2020-9-05T12:01:37Z
2020-09-05T10:03:50Z,42.805,6.029,13.2991,4.60081,2470.171,2020-9-05T12:04:40Z
2020-09-05T10:06:53Z,42.805,6.029,13.2991,4.60054,2470.194,2020-9-05T12:07:44Z
2020-09-05T10:09:58Z,42.805,6.029,13.3011,4.60037,2470.156,2020-9-05T12:10:49Z
2020-09-05T10:13:02Z,42.805,6.029,13.3022,4.60060,2470.18,2020-9-05T12:13:53Z
2020-09-05T10:16:07Z,42.805,6.029,13.3009,4.60076,2470.133,2020-9-05T12:16:58Z
2020-09-05T10:19:10Z,42.805,6.029,13.3011,4.60079,2470.124,2020-9-05T12:20:01Z
2020-09-05T10:22:12Z,42.805,6.029,13.2990,4.60062,2470.156,2020-9-05T12:23:03Z
2020-09-05T10:25:14Z,42.805,6.029,13.3001,4.60038,2470.133,2020-9-05T12:26:05Z
2020-09-05T10:28:19Z,42.805,6.029,13.2989,4.60065,2470.171,2020-9-05T12:29:10Z
2020-09-05T10:31:22Z,42.805,6.029,13.3000,4.60056,2470.133,2020-9-05T12:32:13Z
2020-09-05T10:34:26Z,42.805,6.029,13.3009,4.60044,2470.147,2020-9-05T12:35:17Z
2020-09-05T10:37:30Z,42.805,6.029,13.3026,4.60091,2470.11,2020-9-05T12:38:20Z
2020-09-05T10:40:33Z,42.805,6.029,13.3015,4.60032,2470.133,2020-9-05T12:41:24Z
2020-09-05T10:43:37Z,42.805,6.029,13.2984,4.60056,2470.147,2020-9-05T12:44:28Z
2020-09-05T10:46:39Z,42.805,6.029,13.3014,4.60046,2470.124,2020-9-05T12:47:30Z
2020-09-05T10:49:43Z,42.805,6.029,13.3011,4.60033,2470.147,2020-9-05T12:50:33Z
2020-09-05T10:52:47Z,42.805,6.029,13.3006,4.60028,2470.133,2020-9-05T12:53:38Z
2020-09-05T10:55:51Z,42.805,6.029,13.2991,4.60033,2470.11,2020-9-05T12:56:41Z
2020-09-05T10:58:54Z,42.805,6.029,13.2993,4.60021,2470.11,2020-9-05T12:59:45Z
2020-09-05T11:01:56Z,42.805,6.029,13.2993,4.60059,2470.11,2020-9-05T13:02:47Z
2020-09-05T11:04:57Z,42.805,6.029,13.3000,4.60020,2470.147,2020-9-05T13:05:48Z
2020-09-05T11:08:00Z,42.805,6.029,13.3001,4.60017,2470.147,2020-9-05T13:08:51Z
2020-09-05T11:11:05Z,42.805,6.029,13.3009,4.60044,2470.133,2020-9-05T13:11:56Z
2020-09-05T11:14:08Z,42.805,6.029,13.2982,4.60072,2470.1,2020-9-05T13:14:59Z
2020-09-05T11:17:12Z,42.805,6.029,13.2982,4.60057,2470.11,2020-9-05T13:18:02Z
2020-09-05T11:20:15Z,42.805,6.029,13.2990,4.60054,2470.11,2020-9-05T13:21:06Z
2020-09-05T11:23:19Z,42.805,6.029,13.2996,4.60073,2470.11,2020-9-05T13:24:10Z
2020-09-05T11:26:22Z,42.805,6.029,13.3006,4.60033,2470.087,2020-9-05T13:27:13Z
2020-09-05T11:29:24Z,42.805,6.029,13.2991,4.60064,2470.147,2020-9-05T13:30:14Z
2020-09-05T11:32:27Z,42.805,6.029,13.3004,4.60043,2470.124,2020-9-05T13:33:18Z
2020-09-05T11:35:32Z,42.805,6.029,13.2990,4.60083,2470.124,2020-9-05T13:36:23Z
2020-09-05T11:38:36Z,42.805,6.029,13.3000,4.60067,2470.087,2020-9-05T13:39:27Z
2020-09-05T11:41:40Z,42.805,6.029,13.3006,4.60047,2470.124,2020-9-05T13:42:31Z
2020-09-05T11:44:42Z,42.805,6.029,13.3022,4.60031,2470.124,2020-9-05T13:45:33Z
2020-09-05T11:47:45Z,42.805,6.029,13.3022,4.60059,2470.1,2020-9-05T13:48:36Z
2020-09-05T11:50:47Z,42.805,6.029,13.2987,4.60052,2470.087,2020-9-05T13:51:38Z
2020-09-05T11:53:50Z,42.805,6.029,13.2996,4.60080,2470.087,2020-9-05T13:54:41Z
2020-09-05T11:56:54Z,42.805,6.029,13.2994,4.60055,2470.077,2020-9-05T13:57:45Z
2020-09-05T11:59:58Z,42.805,6.029,13.2990,4.60062,2470.087,2020-9-05T14:00:49Z
2020-09-05T12:03:03Z,42.805,6.029,13.3027,4.60014,2470.077,2020-9-05T14:03:53Z
2020-09-05T12:06:04Z,42.805,6.029,13.3024,4.60031,2470.063,2020-9-05T14:06:55Z
2020-09-05T12:09:07Z,42.805,6.029,13.3011,4.60042,2470.087,2020-9-05T14:09:58Z
2020-09-05T12:12:09Z,42.805,6.029,13.3022,4.60041,2470.063,2020-9-05T14:13:00Z
2020-09-05T12:15:13Z,42.805,6.029,13.3013,4.60026,2470.077,2020-9-05T14:16:03Z
2020-09-05T12:18:16Z,42.805,6.029,13.3018,4.60076,2470.124,2020-9-05T14:19:07Z
2020-09-05T12:21:18Z,42.805,6.029,13.3019,4.60044,2470.087,2020-9-05T14:22:08Z
2020-09-05T12:24:20Z,42.805,6.029,13.3049,4.60033,2470.087,2020-9-05T14:25:11Z
2020-09-05T12:27:24Z,42.805,6.029,13.3034,4.60072,2470.04,2020-9-05T14:28:15Z
2020-09-05T12:30:27Z,42.805,6.029,13.3040,4.60039,2470.087,2020-9-05T14:31:18Z
2020-09-05T12:33:29Z,42.805,6.029,13.3054,4.60029,2470.04,2020-9-05T14:34:20Z
2020-09-05T12:36:32Z,42.805,6.029,13.3037,4.60040,2470.077,2020-9-05T14:37:22Z
2020-09-05T12:39:34Z,42.805,6.029,13.3014,4.60039,2470.053,2020-9-05T14:40:24Z
2020-09-05T12:42:36Z,42.805,6.029,13.3042,4.60035,2470.077,2020-9-05T14:43:27Z
2020-09-05T12:45:39Z,42.805,6.029,13.3037,4.60037,2470.063,2020-9-05T14:46:30Z
2020-09-05T12:48:44Z,42.805,6.029,13.3032,4.60069,2470.063,2020-9-05T14:49:35Z
2020-09-05T12:51:47Z,42.805,6.029,13.3024,4.60053,2470.077,2020-9-05T14:52:38Z
2020-09-05T12:54:49Z,42.805,6.029,13.3008,4.60048,2470.04,2020-9-05T14:55:40Z
2020-09-05T12:57:53Z,42.805,6.029,13.3021,4.60065,2470.11,2020-9-05T14:58:44Z
2020-09-05T13:00:55Z,42.805,6.029,13.3042,4.60041,2470.053,2020-9-05T15:01:46Z
2020-09-05T13:03:58Z,42.805,6.029,13.3019,4.60056,2470.053,2020-9-05T15:04:49Z
2020-09-05T13:07:02Z,42.805,6.029,13.3035,4.60052,2470.053,2020-9-05T15:07:53Z
2020-09-05T13:10:06Z,42.805,6.029,13.2992,4.60052,2470.063,2020-9-05T15:10:57Z
2020-09-05T13:13:10Z,42.805,6.029,13.3012,4.60060,2470.063,2020-9-05T15:14:01Z
2020-09-05T13:16:11Z,42.805,6.029,13.2991,4.60072,2470.053,2020-9-05T15:17:02Z
2020-09-05T13:19:14Z,42.805,6.029,13.3029,4.60026,2470.04,2020-9-05T15:20:05Z
2020-09-05T13:22:16Z,42.805,6.029,13.3035,4.60030,2470.017,2020-9-05T15:23:07Z
2020-09-05T13:25:17Z,42.805,6.029,13.3049,4.60066,2470.04,2020-9-05T15:26:08Z
2020-09-05T13:28:20Z,42.805,6.029,13.3043,4.60063,2470.053,2020-9-05T15:29:11Z
2020-09-05T13:31:25Z,42.805,6.029,13.3059,4.60029,2470.077,2020-9-05T15:32:16Z
2020-09-05T13:34:30Z,42.805,6.029,13.3019,4.60019,2470.077,2020-9-05T15:35:20Z
2020-09-05T13:37:31Z,42.805,6.029,13.3043,4.60037,2470.053,2020-9-05T15:38:22Z
2020-09-05T13:40:35Z,42.805,6.029,13.3054,4.60028,2470.053,2020-9-05T15:41:26Z
2020-09-05T13:43:38Z,42.805,6.029,13.3041,4.59996,2470.077,2020-9-05T15:44:29Z
2020-09-05T13:46:42Z,42.805,6.029,13.3020,4.60005,2470.04,2020-9-05T15:47:32Z
2020-09-05T13:49:45Z,42.805,6.029,13.3016,4.59994,2470.03,2020-9-05T15:50:36Z
2020-09-05T13:52:46Z,42.805,6.029,13.3007,4.60012,2470.03,2020-9-05T15:53:37Z
2020-09-05T13:55:49Z,42.805,6.029,13.2996,4.60015,2470.053,2020-9-05T15:56:40Z
2020-09-05T13:58:52Z,42.805,6.029,13.3024,4.60010,2470.04,2020-9-05T15:59:43Z
2020-09-05T14:01:56Z,42.805,6.029,13.3007,4.60056,2470.03,2020-9-05T16:02:47Z
2020-09-05T14:05:01Z,42.805,6.029,13.3025,4.60049,2470.053,2020-9-05T16:05:52Z
2020-09-05T14:08:04Z,42.805,6.029,13.3046,4.60041,2470.017,2020-9-05T16:08:55Z
2020-09-05T14:11:06Z,42.805,6.029,13.3053,4.60046,2470.03,2020-9-05T16:11:57Z
2020-09-05T14:14:11Z,42.805,6.029,13.3042,4.60016,2470.053,2020-9-05T16:15:02Z
2020-09-05T14:17:12Z,42.805,6.029,13.3067,4.60028,2470.007,2020-9-05T16:18:03Z
2020-09-05T14:20:17Z,42.805,6.029,13.2991,4.60009,2470.007,2020-9-05T16:21:08Z
2020-09-05T14:23:20Z,42.805,6.029,13.3004,4.60035,2470.017,2020-9-05T16:24:11Z
2020-09-05T14:26:24Z,42.805,6.029,13.3030,4.60003,2469.993,2020-9-05T16:27:15Z
2020-09-05T14:29:27Z,42.805,6.029,13.3066,4.60027,2470.03,2020-9-05T16:30:18Z
2020-09-05T14:32:30Z,42.805,6.029,13.3058,4.60015,2470.017,2020-9-05T16:33:21Z
2020-09-05T14:35:34Z,42.805,6.029,13.3029,4.60024,2470.017,2020-9-05T16:36:25Z
2020-09-05T14:38:37Z,42.805,6.029,13.3025,4.60016,2470.053,2020-9-05T16:39:28Z
2020-09-05T14:41:40Z,42.805,6.029,13.3027,4.60016,2470.03,2020-9-05T16:42:31Z
2020-09-05T14:44:44Z,42.805,6.029,13.3046,4.60016,2470.017,2020-9-05T16:45:34Z
2020-09-05T14:47:47Z,42.805,6.029,13.3042,4.60019,2470.007,2020-9-05T16:48:38Z
2020-09-05T14:50:50Z,42.805,6.029,13.3015,4.60017,2470.017,2020-9-05T16:51:41Z
2020-09-05T14:53:54Z,42.805,6.029,13.3006,4.60014,2470.03,2020-9-05T16:54:45Z
2020-09-05T14:56:58Z,42.805,6.029,13.3020,4.60014,2469.97,2020-9-05T16:57:49Z
2020-09-05T15:00:01Z,42.805,6.029,13.3017,4.60028,2470.053,2020-9-05T17:00:52Z
2020-09-05T15:03:03Z,42.805,6.029,13.3000,4.60039,2470.053,2020-9-05T17:03:54Z
2020-09-05T15:06:07Z,42.805,6.029,13.2996,4.60031,2470.017,2020-9-05T17:06:58Z
2020-09-05T15:09:10Z,42.805,6.029,13.3002,4.59994,2470.007,2020-9-05T17:10:01Z
2020-09-05T15:12:14Z,42.805,6.029,13.3015,4.60011,2470.017,2020-9-05T17:13:04Z
2020-09-05T15:15:17Z,42.805,6.029,13.2999,4.60011,2470.053,2020-9-05T17:16:08Z